Location: Hiekkapohja
(62.3333°N, 25.7833°E)
Time: 23:39:07
(UTC+00:00)

Cosmos 1680 Rocket - Pass Details

Date: 07 August 2020
Orbit: 760 x 780 km, 74.1° (Epoch: 20 September)

Event Time Altitude Azimuth Distance (km) Brightness Sun altitude
Rises 00:26:08 0° 325° (NW) 3,256 7.1 -7.7°
Reaches altitude 10° 00:28:34 10° 321° (NW) 2,322 6.3 -7.5°
Maximum altitude 00:33:40 53° 246° (WSW) 944 3.7 -7.2°
Drops below altitude 10° 00:38:43 10° 171° (S) 2,298 5.5 -6.9°
Sets 00:41:07 0° 166° (SSE) 3,218 6.3 -6.8°
